MSC Orchestra — 3EJF3 — position and weather

sailwx.info

Track history (hours):
 
Tides and Currents Weather Stations Pressure Air Temp Water Temp Dewpoint Dewpoint Depression Visibility Wind Speed Wind Dir Waves Ship Positions

MSC Orchestra

Last reported at 2014-Oct-29 16:24 UTC. Time now 2014-Oct-31 13:24 UTC.
Position N 41°22' E 029°12'.

Length 294 m; draft 7.8 m.

Type: Ship. MMSI: 372497000.

Date/timePositionNaut miles runAvg speedWind from/ knotsBaromVisibWave heightAir tempDewpointWater temp
2014-Oct-29 16:24N 41°22' E 029°12'25 2.1
2014-Oct-29 04:33N 40°59' E 028°59'2018.5
2014-Oct-29 03:28N 40°50' E 028°36'263 8.5
2014-Oct-27 20:32N 37°51' E 024°27'1916.8
2014-Oct-27 19:23N 37°38' E 024°09'1416.6
2014-Oct-27 18:33N 37°36' E 023°52'1817.6
2014-Oct-27 17:33N 37°49' E 023°37'7 7.1
2014-Oct-27 16:31N 37°56' E 023°37'0 0.0
2014-Oct-27 15:31N 37°56' E 023°37'0 0.0
2014-Oct-27 14:33N 37°56' E 023°37'0 0.0
2014-Oct-27 13:33N 37°56' E 023°37'0 0.0
2014-Oct-27 12:32N 37°56' E 023°37'0 0.0
2014-Oct-27 11:32N 37°56' E 023°37'0 0.0
2014-Oct-27 10:32N 37°56' E 023°37'3 3.6
2014-Oct-27 09:33N 37°53' E 023°38'1919.2
2014-Oct-27 08:33N 37°34' E 023°45'4320.2
2014-Oct-27 06:25N 36°52' E 023°36'  
2014-Oct-23 08:25N 36°26' E 022°35'41 7.8
2014-Oct-23 03:05N 36°38' E 023°24'1019.1
2014-Oct-23 02:33N 36°47' E 023°31'2519.2
2014-Oct-23 01:13N 37°09' E 023°48'1719.2
2014-Oct-23 00:21N 37°23' E 023°59'1519.0
2014-Oct-22 23:33N 37°36' E 024°09'2018.9
2014-Oct-22 22:31N 37°50' E 024°26'72 3.1
2014-Oct-21 23:31N 38°58' E 023°56'1413.1
2014-Oct-21 22:27N 39°02' E 024°14'2613.4
2014-Oct-21 20:32N 39°16' E 024°42'1313.5
2014-Oct-21 19:33N 39°23' E 024°56'1313.4
2014-Oct-21 18:33N 39°31' E 025°10'1413.9
2014-Oct-21 17:33N 39°40' E 025°24'1615.5
2014-Oct-21 16:33N 39°50' E 025°39'1717.6
2014-Oct-21 15:33N 39°60' E 025°58'4213.8
2014-Oct-21 12:32N 40°24' E 026°42'5216.2
2014-Oct-21 09:18N 40°48' E 027°44'4516.1
2014-Oct-21 06:29N 40°55' E 028°43'1414.7
2014-Oct-21 05:33N 40°60' E 028°60'  
Track history (hours):
 
Tides and Currents Weather Stations Pressure Air Temp Water Temp Dewpoint Dewpoint Depression Visibility Wind Speed Wind Dir Waves Ship Positions

MSC Orchestra

Last reported at 2014-Oct-29 16:24 UTC. Time now 2014-Oct-31 13:24 UTC.
Position N 41°22' E 029°12'.

Length 294 m; draft 7.8 m.

Type: Ship. MMSI: 372497000.

Date/timePositionNaut miles runAvg speedWind from/ knotsBaromVisibWave heightAir tempDewpointWater temp
2014-Oct-29 16:24N 41°22' E 029°12'25 2.1
2014-Oct-29 04:33N 40°59' E 028°59'2018.5
2014-Oct-29 03:28N 40°50' E 028°36'263 8.5
2014-Oct-27 20:32N 37°51' E 024°27'1916.8
2014-Oct-27 19:23N 37°38' E 024°09'1416.6
2014-Oct-27 18:33N 37°36' E 023°52'1817.6
2014-Oct-27 17:33N 37°49' E 023°37'7 7.1
2014-Oct-27 16:31N 37°56' E 023°37'0 0.0
2014-Oct-27 15:31N 37°56' E 023°37'0 0.0
2014-Oct-27 14:33N 37°56' E 023°37'0 0.0
2014-Oct-27 13:33N 37°56' E 023°37'0 0.0
2014-Oct-27 12:32N 37°56' E 023°37'0 0.0
2014-Oct-27 11:32N 37°56' E 023°37'0 0.0
2014-Oct-27 10:32N 37°56' E 023°37'3 3.6
2014-Oct-27 09:33N 37°53' E 023°38'1919.2
2014-Oct-27 08:33N 37°34' E 023°45'4320.2
2014-Oct-27 06:25N 36°52' E 023°36'  
2014-Oct-23 08:25N 36°26' E 022°35'41 7.8
2014-Oct-23 03:05N 36°38' E 023°24'1019.1
2014-Oct-23 02:33N 36°47' E 023°31'2519.2
2014-Oct-23 01:13N 37°09' E 023°48'1719.2
2014-Oct-23 00:21N 37°23' E 023°59'1519.0
2014-Oct-22 23:33N 37°36' E 024°09'2018.9
2014-Oct-22 22:31N 37°50' E 024°26'72 3.1
2014-Oct-21 23:31N 38°58' E 023°56'1413.1
2014-Oct-21 22:27N 39°02' E 024°14'2613.4
2014-Oct-21 20:32N 39°16' E 024°42'1313.5
2014-Oct-21 19:33N 39°23' E 024°56'1313.4
2014-Oct-21 18:33N 39°31' E 025°10'1413.9
2014-Oct-21 17:33N 39°40' E 025°24'1615.5
2014-Oct-21 16:33N 39°50' E 025°39'1717.6
2014-Oct-21 15:33N 39°60' E 025°58'4213.8
2014-Oct-21 12:32N 40°24' E 026°42'5216.2
2014-Oct-21 09:18N 40°48' E 027°44'4516.1
2014-Oct-21 06:29N 40°55' E 028°43'1414.7
2014-Oct-21 05:33N 40°60' E 028°60'  

Dump ship's entire track history